TimePST,TemperatureF,Dew PointF,Humidity,Sea Level PressureIn,VisibilityMPH,Wind Direction,Wind SpeedMPH,Gust SpeedMPH,PrecipitationIn,Events,Conditions,WindDirDegrees,DateUTC
12:03 AM,42.8,41.0,93,30.30,4.0,SE,4.6,-,0.00,,Overcast,130,2013-02-10 08:03:00
12:52 AM,42.8,41.0,93,30.30,6.0,ESE,4.6,-,0.00,,Overcast,120,2013-02-10 08:52:00
12:54 AM,42.1,41.0,96,30.31,5.0,ESE,4.6,-,0.00,,Overcast,120,2013-02-10 08:54:00
1:54 AM,42.1,39.9,92,30.31,9.0,Calm,Calm,-,N/A,,Overcast,0,2013-02-10 09:54:00
2:54 AM,42.1,39.9,92,30.32,9.0,Calm,Calm,-,N/A,,Overcast,0,2013-02-10 10:54:00
3:54 AM,42.1,39.9,92,30.32,8.0,Calm,Calm,-,N/A,,Overcast,0,2013-02-10 11:54:00
4:54 AM,43.0,41.0,93,30.32,8.0,Calm,Calm,-,N/A,,Overcast,0,2013-02-10 12:54:00
5:26 AM,42.8,41.0,93,30.31,6.0,Calm,Calm,-,N/A,,Overcast,0,2013-02-10 13:26:00
5:54 AM,43.0,41.0,93,30.32,6.0,Calm,Calm,-,N/A,,Overcast,0,2013-02-10 13:54:00
6:20 AM,42.8,41.0,93,30.31,5.0,North,3.5,-,N/A,,Overcast,360,2013-02-10 14:20:00
6:54 AM,42.1,41.0,96,30.32,1.5,North,3.5,-,N/A,,Overcast,10,2013-02-10 14:54:00
7:11 AM,42.8,41.0,93,30.32,2.0,NNE,4.6,-,N/A,,Overcast,20,2013-02-10 15:11:00
7:54 AM,43.0,41.0,93,30.34,2.0,NNE,4.6,-,N/A,,Overcast,30,2013-02-10 15:54:00
8:39 AM,42.8,41.0,93,30.34,3.0,NNE,3.5,-,N/A,,Overcast,30,2013-02-10 16:39:00
8:54 AM,44.1,41.0,89,30.34,3.0,NE,5.8,-,N/A,,Overcast,40,2013-02-10 16:54:00
9:31 AM,44.6,41.0,87,30.34,4.0,NE,3.5,-,N/A,,Overcast,50,2013-02-10 17:31:00
9:54 AM,44.1,41.0,89,30.35,4.0,Calm,Calm,-,N/A,,Overcast,0,2013-02-10 17:54:00
10:54 AM,45.0,39.9,82,30.35,5.0,North,6.9,-,N/A,,Overcast,360,2013-02-10 18:54:00
11:54 AM,46.0,39.0,76,30.35,9.0,NNE,9.2,-,N/A,,Overcast,30,2013-02-10 19:54:00
12:54 PM,46.0,39.0,76,30.33,10.0,NNE,11.5,-,N/A,,Overcast,30,2013-02-10 20:54:00
1:54 PM,46.0,39.0,76,30.32,10.0,North,10.4,-,N/A,,Overcast,10,2013-02-10 21:54:00
2:54 PM,45.0,39.0,80,30.32,10.0,NNE,10.4,-,N/A,,Overcast,20,2013-02-10 22:54:00
3:54 PM,46.0,39.0,76,30.32,10.0,NNE,8.1,-,N/A,,Overcast,20,2013-02-10 23:54:00
4:54 PM,45.0,37.0,74,30.32,10.0,NE,5.8,-,N/A,,Overcast,40,2013-02-11 00:54:00
5:54 PM,44.1,37.0,76,30.33,10.0,NE,4.6,-,N/A,,Overcast,40,2013-02-11 01:54:00
6:54 PM,43.0,37.9,82,30.34,10.0,Calm,Calm,-,N/A,,Overcast,0,2013-02-11 02:54:00
7:54 PM,43.0,37.9,82,30.34,10.0,North,3.5,-,N/A,,Overcast,350,2013-02-11 03:54:00
8:54 PM,43.0,39.0,86,30.34,10.0,NNW,3.5,-,N/A,,Overcast,340,2013-02-11 04:54:00
9:54 PM,43.0,39.0,86,30.34,10.0,North,3.5,-,N/A,,Overcast,350,2013-02-11 05:54:00
10:54 PM,43.0,39.0,86,30.33,10.0,Calm,Calm,-,N/A,,Overcast,0,2013-02-11 06:54:00
11:54 PM,43.0,37.0,80,30.34,10.0,NE,4.6,-,N/A,,Overcast,50,2013-02-11 07:54:00